Location: G�rlitz
(51.1670°N, 15.0000°E)
Time: 21:01:52
(UTC+01:00)

Envisat - Pass Details

Date: 24 February 2026
Orbit: 761 x 763 km, 98.4° (Epoch: 11 March)

Event Time Altitude Azimuth Distance (km) Brightness Sun altitude
Rises 04:07:40 0° 7° (N) 3,237 6.6 -26.8°
Reaches altitude 10° 04:10:17 10° 355° (N) 2,307 5.6 -26.4°
Enters shadow 04:12:18 20° 336° (NNW) 1,732 4.7 -26.1°
